Location: *
(48.4333°N, 5.0333°W)
Time: 03:29:48
(UTC+00:00)

SPOT 1/Viking Rocket - Pass Details

Date: 09 April 2020
Orbit: 776 x 795 km, 98.5° (Epoch: 29 May)

Event Time Altitude Azimuth Distance (km) Brightness Sun altitude
Exits shadow 21:30:46 51° 151° (SSE) 996 3.7 -22.3°
Maximum altitude 21:32:07 81° 74° (ENE) 811 3.5 -22.4°
Drops below altitude 10° 21:37:23 10° 348° (NNW) 2,377 6.8 -23.0°
Sets 21:39:43 0° 347° (NNW) 3,311 7.7 -23.3°
